User: anonymous   Login
Location: Sperry Observatory
(40.6664°N, 74.3236°W)
Time: 20:38:13
(UTC-04:00)
Language:

UOSAT-12 - Orbit

View from above orbital plane
View from above orbital plane
View from above satellite
View from above satellite

Ground track
Ground track

The orbit data is extracted from the following two-line orbital elements,

1 25693U 99021A   16207.09689953 -.00000079  00000-0  81548-5 0  9999
2 25693  64.5560  53.7129 0003945 255.7842 104.2825 14.80665506931730
Epoch (UTC): 25 July 2016 02:19:32
Eccentricity: 0.0003945
inclination: 64.5560°
perigee height: 624 km
apogee height: 630 km
right ascension of ascending node: 53.7129°
argument of perigee: 255.7842°
revolutions per day: 14.80665506
mean anomaly at epoch: 104.2825°
orbit number at epoch: 93173

The dashed part of the orbit path shows where the satellite is in the earth's shadow,  

DLR